Location: Castle
(40.7167°S, 175.9500°E)
Time: 03:22:00
(UTC+00:00)

ADEOS Rocket - Pass Details

Date: 04 August 2024
Orbit: 858 x 1306 km, 98.7° (Epoch: 07 September)

Event Time Altitude Azimuth Distance (km) Brightness Sun altitude
Rises 17:38:03 0° 30° (NNE) 3,710 6.6 -19.2°
Reaches altitude 10° 17:40:26 10° 33° (NNE) 2,825 5.9 -18.8°
Maximum altitude 17:46:43 58° 110° (ESE) 1,295 3.9 -17.6°
Drops below altitude 10° 17:53:45 10° 186° (S) 3,164 5.5 -16.3°
Sets 17:56:34 0° 189° (S) 4,189 6.1 -15.7°
